EW0402 Weather Reports


time (UTC)temp
C
wind
direction
speed
KPH
gust
KPH
rain 1hr
cm
rain 24hr
cm
rain mn
cm
humidity
%
barometer
mb
20260506194602 30 306 0.0 3.2 0.00 0.00 0.00 63 1016.9
20260506193059 30 314 1.6 11.3 0.00 0.00 0.00 63 1017.0
20260506191558 30 36 1.6 11.3 0.00 0.00 0.00 64 1017.1
20260506190101 30 288 1.6 6.4 0.00 0.00 0.00 62 1017.2
20260506184601 30 311 3.2 11.3 0.00 0.00 0.00 63 1017.2
20260506183103 30 292 1.6 16.1 0.00 0.00 0.00 61 1017.4
20260506181620 30 350 4.8 12.9 0.00 0.00 0.00 60 1017.6
20260506180054 30 295 3.2 11.3 0.00 0.00 0.00 62 1017.7
20260506174554 30 312 1.6 6.4 0.00 0.00 0.00 61 1017.8
20260506173100 30 302 1.6 6.4 0.00 0.00 0.00 60 1018.1
20260506171549 30 360 1.6 8.0 0.00 0.00 0.00 61 1018.4
20260506170052 30 285 3.2 14.5 0.00 0.00 0.00 59 1018.4
20260506164548 30 279 3.2 9.7 0.00 0.00 0.00 61 1018.5
20260506163045 30 346 1.6 6.4 0.00 0.00 0.00 62 1018.6
20260506161540 29 167 1.6 11.3 0.00 0.00 0.00 65 1018.6
20260506160037 28 325 1.6 6.4 0.00 0.00 0.00 69 1018.6
20260506154533 27 349 1.6 9.7 0.00 0.00 0.00 71 1018.7
20260506153030 27 305 1.6 12.9 0.00 0.00 0.00 69 1018.5
20260506151525 26 16 0.0 16.1 0.00 0.00 0.00 71 1018.2
20260506150022 26 306 1.6 8.0 0.00 0.00 0.00 72 1018.0
20260506144522 26 349 1.6 14.5 0.00 0.00 0.00 71 1017.8
20260506143016 26 112 1.6 8.0 0.00 0.00 0.00 77 1017.6
20260506141513 25 241 1.6 9.7 0.00 0.00 0.00 80 1017.5
20260506140009 24 337 1.6 9.7 0.00 0.00 0.00 86 1017.2
20260506134504 23 311 3.2 12.9 0.00 0.00 0.00 89 1017.2
20260506133059 22 269 0.0 4.8 0.00 0.00 0.00 94 1017.1
20260506131556 21 281 0.0 4.8 0.00 0.00 0.00 96 1017.2
20260506130051 21 246 0.0 3.2 0.00 0.00 0.00 97 1017.3
20260506124550 20 32 1.6 4.8 0.00 0.00 0.00 97 1017.2
20260506123044 20 275 0.0 4.8 0.00 0.00 0.00 97 1017.0
20260506121541 20 285 0.0 3.2 0.00 0.00 0.00 97 1016.8
20260506120041 19 275 0.0 3.2 0.00 0.00 0.00 97 1016.7
20260506114536 19 256 0.0 3.2 0.00 0.00 0.00 97 1016.5
20260506113040 18 290 0.0 3.2 0.00 0.00 0.00 97 1016.3
20260506111532 18 284 0.0 3.2 0.00 0.00 0.00 97 1016.2
20260506110030 18 340 0.0 4.8 0.00 0.00 0.00 96 1016.1
20260506104533 18 326 1.6 6.4 0.00 0.00 0.00 96 1015.9
20260506103029 18 304 0.0 6.4 0.00 0.00 0.00 96 1016.0
20260506101528 18 319 1.6 4.8 0.00 0.00 0.00 96 1015.8
20260506100027 18 319 0.0 4.8 0.00 0.00 0.00 96 1016.1
20260506094527 18 313 1.6 6.4 0.00 0.00 0.00 95 1016.2
20260506093025 18 268 0.0 1.6 0.00 0.00 0.00 95 1016.1
20260506091524 18 250 0.0 3.2 0.00 0.00 0.00 95 1015.9
20260506090024 18 246 0.0 3.2 0.00 0.00 0.00 95 1015.8
20260506084523 18 218 0.0 1.6 0.00 0.00 0.00 95 1015.7
20260506083023 18 256 0.0 4.8 0.00 0.00 0.00 94 1015.7
20260506081521 18 235 0.0 1.6 0.00 0.00 0.00 94 1015.7
20260506073019 18 234 0.0 1.6 0.00 0.00 0.00 93 1016.0
20260506071519 18 234 0.0 1.6 0.00 0.00 0.00 93 1016.0
20260506061513 18 234 0.0 0.0 0.00 0.00 0.00 92 1016.2
20260506044600 18 234 0.0 0.0 0.00 0.00 0.00 87 1017.0
20260506043101 19 234 0.0 0.0 0.00 0.00 0.00 86 1017.1
20260506041601 19 234 0.0 0.0 0.00 0.00 0.00 85 1017.1
20260506040055 20 234 0.0 0.0 0.00 0.00 0.00 84 1017.2
20260506034613 20 234 0.0 1.6 0.00 0.00 0.00 83 1017.1
20260506033054 20 234 0.0 1.6 0.00 0.00 0.00 82 1017.1
20260506031601 20 234 0.0 1.6 0.00 0.00 0.00 80 1017.0
20260506030053 20 234 0.0 1.6 0.00 0.00 0.00 80 1017.2
20260506024612 21 234 0.0 1.6 0.00 0.00 0.00 79 1017.1
20260506023052 21 234 0.0 1.6 0.00 0.00 0.00 78 1016.9
20260506021553 21 234 0.0 1.6 0.00 0.00 0.00 77 1016.7
20260506020052 21 234 0.0 1.6 0.00 0.00 0.00 77 1016.5
20260506014552 21 234 0.0 1.6 0.00 0.00 0.00 76 1016.4
20260506013103 22 234 0.0 1.6 0.00 0.00 0.00 75 1016.2
20260506011604 22 234 0.0 1.6 0.00 0.00 0.00 74 1016.4
20260506010052 22 234 0.0 0.0 0.00 0.00 0.00 73 1016.2
20260506004549 23 234 0.0 1.6 0.00 0.00 0.00 71 1016.1
20260506003049 23 234 0.0 0.0 0.00 0.00 0.00 69 1016.0
20260506001548 23 234 0.0 1.6 0.00 0.00 0.00 68 1016.0
20260506000051 24 234 0.0 3.2 0.00 0.00 0.00 67 1016.0
20260505234548 25 233 0.0 3.2 0.00 0.00 0.00 66 1015.8
20260505233046 25 360 0.0 4.8 0.00 0.00 0.00 64 1015.8
20260505231547 25 323 1.6 4.8 0.00 0.00 0.00 64 1015.9
20260505230056 26 329 0.0 6.4 0.00 0.00 0.00 63 1015.9
20260505224547 26 284 4.8 14.5 0.00 0.00 0.00 62 1015.6
20260505223055 26 5 1.6 9.7 0.00 0.00 0.00 61 1015.5
20260505221544 27 205 1.6 16.1 0.00 0.00 0.00 60 1015.6
20260505220044 27 260 3.2 6.4 0.00 0.00 0.00 58 1015.7
20260505214542 27 314 3.2 20.9 0.00 0.00 0.00 58 1015.9
20260505213053 27 339 1.6 8.0 0.00 0.00 0.00 57 1015.8
20260505211541 28 46 3.2 11.3 0.00 0.00 0.00 54 1015.7
20260505210040 28 348 3.2 12.9 0.00 0.00 0.00 53 1015.6
20260505204540 29 295 1.6 6.4 0.00 0.00 0.00 50 1015.6
20260505203045 29 261 1.6 6.4 0.00 0.00 0.00 53 1015.8
20260505201537 28 251 1.6 6.4 0.00 0.00 0.00 51 1016.1